Flag for U.S.A. Weather past 2 weeks in Grand Rapids, Michigan, U.S.A.

Now
63 °F

Passing clouds.


Feels Like: 63 °F
Forecast: 44 / 61 °F
Wind: 16 mph from West

Location: Kent County International Airport

Current Time: Sep 16, 2014 at 5:54:27 PM

Latest Report: Sep 16, 2014 at 4:53 PM


Visibility: 10 mi

Pressure: 30.12 "Hg

Humidity: 47%

Dew point: 42 °F

Location of Grand RapidsLocation

Historic Weather in Grand Rapids — Graph

°F

Grand Rapids temperature yesterday

Maximum temperature yesterday: 62 °F (at 12:53 PM)
Minimum temperature yesterday: 47 °F (at 12:53 AM)
Average temperature yesterday: 54 °F

Past Weeks' High & Low Weather Summary

 TemperatureHumidityPressure
High83 °F (Sep 5, 11:53 AM)100% (Sep 2, 1:53 AM)30.36 "Hg (Sep 2, 1:53 AM)
Low44 °F (Sep 14, 2:53 AM)36% (Sep 8, 3:53 PM)29.52 "Hg (Sep 10, 3:53 PM)
Average63 °F81%30.06 "Hg
* Reported Sep 1 4:53 PM — Sep 16 4:53 PM, Grand Rapids, Weather by CustomWeather, © 2014

Note: Actual official high and low records may vary slightly from our data, if they occured in-between our weather recording intervals... More about our weather records

Advertising

Grand Rapids weather history for previous 24 hours

 ConditionsComfort  
Time TempWeatherWind HumidityBarometerVisibility
4:53 PM
Sep 16
63 °FPassing clouds.16 mph47%30.12 "Hg10 mi
3:53 PM64 °FScattered clouds.12 mph49%30.12 "Hg10 mi
2:53 PM65 °FScattered clouds.14 mph47%30.13 "Hg10 mi
1:53 PM65 °FPartly sunny.12 mph51%30.14 "Hg10 mi
12:53 PM61 °FPartly sunny.10 mph58%30.16 "Hg10 mi
11:53 AM61 °FPartly sunny.6 mph70%30.17 "Hg10 mi
10:53 AM58 °FScattered clouds.5 mph81%30.19 "Hg10 mi
9:53 AM51 °FFog.No wind92%30.19 "Hg6 mi
9:04 AM47 °FFog.3 mph97%30.18 "Hg4 mi
8:53 AM46 °FFog.3 mph96%30.19 "Hg0 mi
7:58 AM44 °FFog.No wind96%30.18 "Hg1 mi
6:53 AM44 °FFog.3 mph100%30.18 "Hg0 mi
5:53 AM46 °FFog.No wind100%30.18 "Hg0 mi
4:53 AM48 °FFog.No wind100%30.17 "Hg0 mi
3:53 AM48 °FFog.3 mph100%30.17 "Hg0 mi
3:03 AM49 °FFog.No wind100%30.15 "Hg0 mi
2:53 AM49 °FFog.3 mph100%30.16 "Hg0 mi
1:53 AM50 °FClear.5 mph96%30.15 "Hg10 mi
1:02 AM51 °FPassing clouds.6 mph96%30.14 "Hg10 mi
12:53 AM52 °FPassing clouds.6 mph93%30.15 "Hg10 mi
11:53 PM
Sep 15
53 °FOvercast.8 mph93%30.14 "Hg10 mi
10:53 PM52 °FPassing clouds.5 mph100%30.13 "Hg7 mi
9:53 PM53 °FPartly cloudy.3 mph100%30.12 "Hg9 mi
8:53 PM54 °FPartly cloudy.5 mph97%30.11 "Hg10 mi
7:53 PM55 °FLight rain. Mostly cloudy.5 mph93%30.10 "Hg10 mi
6:53 PM55 °FLight rain. More clouds than sun.6 mph96%30.11 "Hg8 mi
5:53 PM58 °FLight rain. Fog.5 mph90%30.09 "Hg3 mi
Weather by CustomWeather, © 2014

See weather overviewHow to use our weather pages